Waarnemingen

Advertentie
Mijn weer
Altnaharra, Groot Brittannië (3044): temperatuur & dauwpunt: 11.10.2017 16:00:00 - 17.10.2017 16:00:00 (BST)Altnaharra, Groot Brittannië (3044): temperatuur -20cm & temperatuur -100cm: 11.10.2017 16:00:00 - 17.10.2017 16:00:00 (BST)Altnaharra, Groot Brittannië (3044): windsnelheid & windstoten: 11.10.2017 16:00:00 - 17.10.2017 16:00:00 (BST)Altnaharra, Groot Brittannië (3044): windrichting: 11.10.2017 16:00:00 - 17.10.2017 16:00:00 (BST)Altnaharra, Groot Brittannië (3044): luchtdruk: 11.10.2017 16:00:00 - 17.10.2017 16:00:00 (BST)Altnaharra, Groot Brittannië (3044): zicht: 11.10.2017 16:00:00 - 17.10.2017 16:00:00 (BST)Altnaharra, Groot Brittannië (3044): Zonneschijnduur: 11.10.2017 16:00:00 - 17.10.2017 16:00:00 (BST)Altnaharra, Groot Brittannië (3044): neerslag: 11.10.2017 16:00:00 - 17.10.2017 16:00:00 (BST)
Datum & Tijd tt [°C] td [°C] tt -20cm [°C] tt -100cm [°C] ff [km/u] ff [kn] fx [km/u] fx [kn] dd ppp [hPa] vv [km] sd [min] rr [mm]
17.10.2017 16:00:00 - - - - - - - - - - - - -
17.10.2017 15:00:00 9,2 7,9 - - 21 11 - - NNW 1009,4 6 0 0,0
17.10.2017 14:00:00 9,5 8,1 - - 28 15 - - NNW 1008,0 13 0 0,4
17.10.2017 13:00:00 9,3 8,4 - - 29 16 48 26 NNW 1006,5 7 0 0,6
17.10.2017 12:00:00 9,6 8,8 - - 22 12 46 25 NNW 1004,1 5 0 0,4
17.10.2017 11:00:00 10,1 9,2 - - 29 16 46 25 NNW 1001,5 5 0 0,4
17.10.2017 10:00:00 10,7 9,9 10,4 11,0 26 14 - - NW 998,6 6 0 0,2
17.10.2017 09:00:00 11,1 10,8 - - 24 13 - - NW 996,1 2,9 0 0,4
17.10.2017 08:00:00 11,0 10,8 - - 15 8 - - WZW 994,0 35 0 0,2
17.10.2017 07:00:00 10,6 10,4 - - 18 10 - - W 992,1 5 0 0,4
17.10.2017 06:00:00 10,5 10,2 - - 9 5 - - WZW 990,4 7 0 0,2
17.10.2017 05:00:00 10,2 9,8 - - 9 5 - - W 989,0 30 0 0,2
17.10.2017 04:00:00 10,6 9,8 - - 8 4 - - W 988,6 26 0 0,6
17.10.2017 03:00:00 12,3 9,7 - - 4 2 - - ZO 988,8 21 0 0,0
17.10.2017 02:00:00 11,2 10,2 - - 24 13 - - NNO 989,4 25 0 0,6
17.10.2017 01:00:00 11,5 10,0 - - 18 10 - - O 990,2 18 - 0,6
17.10.2017 00:00:00 12,2 9,7 - - 18 10 - - O 991,3 40 0 0,0
16.10.2017 23:00:00 12,0 11,3 - - 22 12 - - ONO 992,0 18 0 0,0
16.10.2017 22:00:00 12,1 11,3 - - 28 15 46 25 O 993,9 20 0 0,2
16.10.2017 21:00:00 11,1 10,6 - - 28 15 46 25 O 995,9 12 0 1,4
16.10.2017 20:00:00 9,6 9,2 - - 24 13 55 30 ONO 998,6 3,2 0 1,2
16.10.2017 19:00:00 9,1 8,5 - - 34 18 57 31 ONO 1000,5 9 0 -
16.10.2017 18:00:00 8,7 8,1 - - 37 20 55 30 ONO 1003,2 2,9 0 0,4
16.10.2017 17:00:00 8,7 7,8 - - 26 14 - - ONO 1004,9 11 0 0,0
16.10.2017 16:00:00 8,7 7,5 - - 18 10 - - NO 1007,3 50 0 0,0
16.10.2017 15:00:00 7,9 7,2 - - 18 10 - - NO 1008,5 45 0 0,8
16.10.2017 14:00:00 7,8 6,8 - - 11 6 - - NO 1011,4 50 0 1,4
16.10.2017 13:00:00 8,2 7,1 - - 15 8 - - ONO 1012,5 50 0 1,0
16.10.2017 12:00:00 8,3 7,0 - - 5 3 - - O 1013,8 23 0 1,2
16.10.2017 11:00:00 8,4 6,5 - - 4 2 - - ZZO 1014,5 30 0 0,8
16.10.2017 10:00:00 7,6 7,0 10,7 11,0 4 2 - - O 1015,5 9 0 0,6
16.10.2017 09:00:00 7,4 6,9 - - 5 3 - - O 1013,6 50 0 0,0
16.10.2017 08:00:00 6,7 6,1 - - 2 1 - - WZW 1013,9 40 0 0,0
16.10.2017 07:00:00 6,5 5,5 - - 5 3 - - NNW 1014,5 45 0 0,0
16.10.2017 06:00:00 7,4 6,1 - - 2 1 - - ZZO 1014,1 40 0 0,0
16.10.2017 05:00:00 8,0 6,4 - - 4 2 - - NW 1014,0 45 0 0,0
16.10.2017 04:00:00 8,0 6,3 - - 2 1 - - Z 1014,0 40 0 0,0
16.10.2017 03:00:00 7,7 5,4 - - 8 4 - - ZZW 1014,0 40 0 0,0
16.10.2017 02:00:00 8,0 5,7 - - 2 1 - - WZW 1013,7 50 0 0,0
16.10.2017 01:00:00 8,1 5,8 - - 2 1 - - ZZO 1013,9 50 - 0,0
16.10.2017 00:00:00 8,9 6,3 - - 9 5 - - Z 1013,3 50 0 0,0
15.10.2017 23:00:00 9,0 6,4 - - 11 6 - - OZO 1012,7 45 0 0,0
15.10.2017 22:00:00 8,4 6,7 - - 5 3 - - ZW 1011,9 40 0 0,0
15.10.2017 21:00:00 8,6 7,1 - - 15 8 - - WZW 1011,5 14 0 0,0
15.10.2017 20:00:00 8,2 7,2 - - 8 4 - - ZZO 1010,5 45 0 0,0
15.10.2017 19:00:00 8,5 7,1 - - 18 10 - - ZW 1009,3 45 0 0,0
15.10.2017 18:00:00 9,0 7,4 - - 21 11 - - WZW 1008,7 8 0 0,0
15.10.2017 17:00:00 9,4 8,3 - - 21 11 - - W 1007,0 28 0 0,2
15.10.2017 16:00:00 10,8 7,3 - - 29 16 67 36 WZW 1005,5 20 24 0,0
15.10.2017 15:00:00 12,5 9,0 - - 39 21 65 35 WZW 1002,1 40 42 0,0
15.10.2017 14:00:00 17,3 11,7 - - 29 16 65 35 Z 998,5 30 36 0,0
15.10.2017 13:00:00 18,3 11,2 - - 39 21 67 36 Z 997,7 45 36 0,0
15.10.2017 12:00:00 15,6 12,3 - - 37 20 61 33 ZZO 998,7 50 0 0,0
15.10.2017 11:00:00 15,1 12,5 - - 34 18 55 30 ZZO 998,7 50 0 0,2
15.10.2017 10:00:00 14,5 12,8 10,5 11,0 29 16 46 25 ZZO 999,5 8 0 0,2
15.10.2017 09:00:00 14,5 12,4 - - 34 18 46 25 ZZO 999,5 45 0 0,2
15.10.2017 08:00:00 14,7 12,1 - - 31 17 48 26 ZZO 999,7 45 0 0,2
15.10.2017 07:00:00 15,1 12,5 - - 29 16 46 25 ZO 999,9 26 0 0,8
15.10.2017 06:00:00 14,4 11,8 - - 26 14 46 25 ZZO 1000,9 15 0 0,8
15.10.2017 05:00:00 13,4 12,0 - - 16 9 - - Z 1001,9 40 0 0,4
15.10.2017 04:00:00 9,2 9,0 - - 9 5 - - NW 1003,6 24 0 0,6
15.10.2017 03:00:00 8,6 8,0 - - 8 4 - - WZW 1005,7 13 0 0,2
15.10.2017 02:00:00 9,2 7,8 - - 15 8 - - ONO 1007,1 28 0 0,2
15.10.2017 01:00:00 9,0 7,3 - - 22 12 - - ONO 1008,7 18 - 0,6
15.10.2017 00:00:00 9,2 7,6 - - 8 4 - - O 1010,3 30 0 0,6
14.10.2017 23:00:00 9,2 7,6 - - 9 5 - - NNO 1011,8 15 0 0,4
14.10.2017 22:00:00 9,1 6,7 - - 2 1 - - Z 1012,3 15 0 0,0
14.10.2017 21:00:00 10,6 6,2 - - 9 5 - - Z 1012,7 18 0 0,0
14.10.2017 20:00:00 9,7 6,1 - - 9 5 - - WZW 1012,6 8 0 0,0
14.10.2017 19:00:00 9,1 5,0 - - 8 4 - - ZZW 1013,4 24 0 0,0
14.10.2017 18:00:00 10,8 5,3 - - 5 3 - - ZO 1013,2 16 0 0,0
14.10.2017 17:00:00 11,8 5,4 - - 13 7 - - ZW 1012,8 15 6 0,0
14.10.2017 16:00:00 12,3 5,9 - - 21 11 - - ZW 1012,5 18 12 0,0
14.10.2017 15:00:00 12,6 6,6 - - 21 11 50 27 ZW 1011,8 16 0 0,0
14.10.2017 14:00:00 12,5 5,1 - - 31 17 54 29 ZW 1011,4 20 6 0,0
14.10.2017 13:00:00 12,6 5,0 - - 34 18 52 28 ZW 1011,0 17 48 0,0
14.10.2017 12:00:00 12,9 5,9 - - 18 10 - - ZW 1010,4 12 30 0,0
14.10.2017 11:00:00 12,0 5,5 - - 22 12 48 26 ZW 1009,9 16 36 0,0
14.10.2017 10:00:00 10,6 7,5 10,7 11,0 24 13 50 27 WZW 1009,7 9 18 0,0
14.10.2017 09:00:00 11,0 5,1 - - 18 10 46 25 ZW 1009,1 17 18 0,0
14.10.2017 08:00:00 10,4 4,7 - - 21 11 48 26 ZW 1008,2 19 0 0,0
14.10.2017 07:00:00 10,6 4,6 - - 22 12 52 28 ZW 1007,7 20 0 0,0
14.10.2017 06:00:00 10,6 5,8 - - 24 13 50 27 ZW 1007,6 20 0 0,0
14.10.2017 05:00:00 10,4 5,8 - - 26 14 59 32 ZW 1007,5 30 0 0,0
14.10.2017 04:00:00 11,3 5,1 - - 24 13 52 28 ZW 1007,0 23 0 0,0
14.10.2017 03:00:00 11,6 5,6 - - 18 10 52 28 ZZW 1006,8 21 0 0,0
14.10.2017 02:00:00 11,5 5,4 - - 21 11 54 29 ZZW 1006,4 17 0 0,0
14.10.2017 01:00:00 11,5 5,0 - - 24 13 52 28 ZW 1005,8 19 - 0,0
14.10.2017 00:00:00 11,8 4,5 - - 28 15 57 31 ZZW 1005,3 21 0 0,0
13.10.2017 23:00:00 11,9 5,2 - - 24 13 55 30 ZZW 1004,8 18 0 0,0
13.10.2017 22:00:00 12,2 5,4 - - 31 17 57 31 ZW 1004,4 12 0 0,0
13.10.2017 21:00:00 12,3 6,0 - - 26 14 55 30 ZZW 1004,2 17 0 0,0
13.10.2017 20:00:00 12,6 5,7 - - 29 16 61 33 ZZW 1004,1 19 0 0,0
13.10.2017 19:00:00 12,5 5,6 - - 22 12 52 28 ZZW 1003,5 24 0 0,0
13.10.2017 18:00:00 12,7 6,2 - - 26 14 50 27 ZW 1002,8 14 0 0,0
13.10.2017 17:00:00 13,1 5,2 - - 26 14 63 34 ZW 1002,2 16 48 0,0
13.10.2017 16:00:00 14,5 5,2 - - 28 15 67 36 ZZW 1001,8 21 42 0,0
13.10.2017 15:00:00 14,7 5,9 - - 29 16 63 34 ZW 1001,4 14 60 0,0
13.10.2017 14:00:00 14,0 7,1 - - 24 13 55 30 ZW 1000,6 15 18 0,0
13.10.2017 13:00:00 14,5 6,9 - - 28 15 61 33 ZZW 999,7 30 18 0,0
13.10.2017 12:00:00 13,8 7,6 - - 26 14 54 29 ZZW 999,6 18 30 0,0
13.10.2017 11:00:00 14,8 9,2 - - 21 11 50 27 ZZW 998,3 35 0 0,0
13.10.2017 10:00:00 13,5 11,9 10,7 11,2 22 12 - - ZW 997,6 30 0 0,0
13.10.2017 09:00:00 15,3 13,3 - - 15 8 48 26 ZZW 996,9 19 0 0,0
13.10.2017 08:00:00 15,4 14,2 - - 16 9 - - Z 996,5 30 0 0,0
13.10.2017 07:00:00 15,3 14,4 - - 18 10 - - Z 995,7 30 0 1,0
13.10.2017 06:00:00 15,6 14,3 - - 18 10 - - Z 995,9 30 0 0,0
13.10.2017 05:00:00 15,7 14,3 - - 21 11 50 27 Z 996,0 28 0 0,2
13.10.2017 04:00:00 15,0 13,7 - - 35 19 63 34 ZZO 996,8 6 0 0,8
13.10.2017 03:00:00 15,1 13,2 - - 29 16 50 27 ZZO 997,1 14 0 0,4
13.10.2017 02:00:00 15,0 12,4 - - 29 16 59 32 ZZO 997,5 9 0 0,0
13.10.2017 01:00:00 15,9 11,0 - - 26 14 55 30 ZZO 998,1 50 - 0,0
13.10.2017 00:00:00 14,9 10,3 - - 29 16 54 29 ZZO 999,0 50 0 0,0
12.10.2017 23:00:00 14,8 10,1 - - 39 21 61 33 ZZO 999,8 50 0 0,0
12.10.2017 22:00:00 13,2 8,5 - - 29 16 59 32 ZZO 1000,5 50 0 0,0
12.10.2017 21:00:00 13,0 7,8 - - 34 18 55 30 ZZO 1001,6 40 0 0,0
12.10.2017 20:00:00 11,9 7,0 - - 15 8 - - ZO 1002,5 50 0 0,0
12.10.2017 19:00:00 11,7 7,4 - - 21 11 - - ZZO 1003,9 50 0 0,0
12.10.2017 18:00:00 11,3 7,9 - - 16 9 - - Z 1004,5 40 0 0,0
12.10.2017 17:00:00 11,0 7,7 - - 11 6 - - ZZO 1005,6 50 0 0,0
12.10.2017 16:00:00 10,3 7,9 - - 18 10 - - Z 1006,1 50 0 0,0
12.10.2017 15:00:00 9,4 8,1 - - 22 12 - - ZZO 1006,6 45 0 0,0
12.10.2017 14:00:00 9,6 6,3 - - 13 7 - - ZZW 1006,9 14 0 0,0
12.10.2017 13:00:00 9,2 6,2 - - 21 11 - - ZW 1007,3 21 0 0,2
12.10.2017 12:00:00 11,2 5,2 - - 22 12 46 25 ZW 1005,6 27 18 0,0
12.10.2017 11:00:00 10,7 5,2 - - 24 13 - - ZW 1005,0 28 0 0,0
12.10.2017 10:00:00 10,4 5,0 10,7 11,2 18 10 - - ZW 1004,4 25 6 0,0
12.10.2017 09:00:00 9,1 4,8 - - 13 7 - - ZW 1003,9 35 0 0,0
12.10.2017 08:00:00 8,0 5,0 - - 24 13 46 25 WZW 1002,8 22 0 0,2
12.10.2017 07:00:00 6,1 4,2 - - 39 21 54 29 W 1002,2 5 0 0,2
12.10.2017 06:00:00 8,1 4,2 - - 21 11 46 25 ZW 1001,1 30 0 0,0
12.10.2017 05:00:00 7,6 4,6 - - 16 9 - - ZW 1000,1 35 0 0,0
12.10.2017 04:00:00 7,9 5,3 - - 15 8 - - ZZW 999,6 50 0 0,2
12.10.2017 03:00:00 7,4 4,9 - - 26 14 52 28 ZW 999,4 50 0 1,0
12.10.2017 02:00:00 7,8 5,7 - - 15 8 - - Z 998,7 40 0 0,0
12.10.2017 01:00:00 7,7 5,7 - - 16 9 - - ZZW 998,5 45 - 0,8
12.10.2017 00:00:00 9,0 5,0 - - 15 8 - - ZW 998,1 35 0 0,0
11.10.2017 23:00:00 7,7 4,8 - - 16 9 - - Z 998,0 40 0 0,0
11.10.2017 22:00:00 7,4 4,6 - - 8 4 - - ZW 997,8 45 0 0,0
11.10.2017 21:00:00 8,8 5,0 - - 9 5 - - ZW 997,1 30 0 0,0
11.10.2017 20:00:00 8,7 5,1 - - 4 2 - - Z 996,6 30 0 0,0
11.10.2017 19:00:00 8,9 4,7 - - 8 4 - - ZW 996,0 35 0 0,0
11.10.2017 18:00:00 9,3 6,3 - - 8 4 - - WZW 995,0 19 0 0,0
11.10.2017 17:00:00 10,0 7,4 - - 9 5 - - WZW 994,2 23 0 0,0
11.10.2017 16:00:00 10,8 6,8 - - 11 6 - - WZW 993,7 50 0 0,0

tt = temperatuur
td = dauwpunt
tt -20cm = temperatuur -20cm
tt -100cm = temperatuur -100cm
ff = windsnelheid
fx = windstoten
dd = windrichting
ppp = luchtdruk
vv = zicht
sd = Zonneschijnduur
rr = neerslag

Weerstations in de omgeving